Location: Caramacate
(10.0289°N, 66.7587°W)
Time: 20:18:28
(UTC+00:00)

Cosmos 1869 - Pass Details

Date: 05 August 2024
Orbit: 487 x 521 km, 82.5° (Epoch: 07 September)

Event Time Altitude Azimuth Distance (km) Brightness Sun altitude
Rises 23:35:18 0° 356° (N) 2,657 7.1 -11.7°
Reaches altitude 10° 23:37:26 10° 356° (N) 1,766 6.2 -12.2°
Maximum altitude 23:41:20 89° 89° (E) 528 3.2 -13.1°
Drops below altitude 10° 23:45:10 10° 176° (S) 1,749 5.6 -14.0°
Enters shadow 23:47:12 - 176° (S) 2,589 6.5 -14.5°
